Overview Statistics Trail Chart Weather Telemetry Raw packets
 

This is the latest recevied weather packets stored in our database for station/object K7KAR-2. If no packets are shown the sender has not sent any weather packets the latest 10 day(s).

<< 3 4 5 6 7 8 9 >>
Time Temp. Humidity Pressure Rain* Wind** Luminosity Snow
1788591873 17.78° C 39% 1013.9 hPa 0 mm - 0 W/m² -
1788591572 17.22° C 41% 1013.9 hPa 0 mm - 0 W/m² -
1788591270 17.78° C 41% 1014 hPa 0 mm - 0 W/m² -
1788590966 17.78° C 41% 1013.6 hPa 0 mm - 0 W/m² -
1788590660 17.22° C 42% 1014 hPa 0 mm - 0 W/m² -
1788590355 17.22° C 42% 1013.8 hPa 0 mm - 0 W/m² -
1788590050 17.78° C 41% 1013.5 hPa 0 mm - 0 W/m² -
1788589746 18.33° C 39% 1013.5 hPa 0 mm - 0 W/m² -
1788589440 18.89° C 38% 1013.6 hPa 0 mm - 0 W/m² -
1788589136 18.89° C 37% 1013.3 hPa 0 mm - 0 W/m² -
1788588834 18.89° C 37% 1013.2 hPa 0 mm - 0 W/m² -
1788588529 18.89° C 38% 1013.2 hPa 0 mm - 0 W/m² -
1788588227 18.89° C 38% 1013.3 hPa 0 mm - 0 W/m² -
1788587925 18.89° C 38% 1013.2 hPa 0 mm - 0 W/m² -
1788587621 18.89° C 37% 1013.3 hPa 0 mm - 0 W/m² -
1788587320 18.89° C 38% 1013 hPa 0 mm - 0 W/m² -
1788587016 18.89° C 37% 1012.9 hPa 0 mm - 0 W/m² -
1788586716 19.44° C 36% 1013 hPa 0 mm - 0 W/m² -
1788586416 20° C 35% 1012.8 hPa 0 mm - 0 W/m² -
1788586110 20.56° C 34% 1012.9 hPa 0 mm - 0 W/m² -
1788585805 20.56° C 34% 1012.8 hPa 0 mm - 0 W/m² -
1788585505 20.56° C 34% 1013 hPa 0 mm - 0 W/m² -
1788585201 20.56° C 33% 1012.8 hPa 0 mm - 0 W/m² -
1788584898 21.11° C 33% 1012.7 hPa 0 mm - 0 W/m² -
1788584594 21.67° C 33% 1012.6 hPa 0 mm - 0 W/m² -

* Rain latest hour (hover to see other rain measurements)
** Current wind speed in m/s (hover to see current wind gust speed)